Regional Weather Roundup
Issued by NWS

Home | Current Version | Previous Version | Text Only | Print | Product List | Glossary On
Versions: 1 2 3 4 5 6 7 8 9 10 11 12 13 14 15 16 17 18 19 20 21 22 23 24 25 26 27 28 29 30 31 32 33 34 35 36 37 38 39 40 41 42 43 44 45 46 47 48 49 50
000
ASUS43 KMKX 221421
RWRWI

WISCONSIN REGIONAL WEATHER ROUNDUP
NATIONAL WEATHER SERVICE MILWAUKEE/SULLIVAN WI
900 AM CDT SUN OCT 22 2017

NOTE: "FAIR" INDICATES FEW OR NO CLOUDS BELOW 12,000 FEET WITH NO
SIGNIFICANT WEATHER AND/OR OBSTRUCTIONS TO VISIBILITY.

WIZ001-002-006>008-014>016-023>028-221500-
NORTHWEST WISCONSIN

CITY           SKY/WX    TMP DP  RH WIND       PRES   REMARKS
SUPERIOR ARPT  CLOUDY    47  42  82 SW9       29.88R
ASHLAND        CLOUDY    50  42  74 SW12      29.89R
HAYWARD        PTSUNNY   48  41  76 VRB3      29.92R
SIREN          CLOUDY    47  40  76 W9        29.93S
CUMBERLAND     PTSUNNY   46  39  76 W8        29.94R
RICE LAKE      PTSUNNY   48  41  76 W8        29.96R
CHETEK         CLOUDY    48  42  78 W5        29.94R
LADYSMITH      CLOUDY    49  44  84 W6        29.94R
EAU CLAIRE     CLOUDY    50  43  77 SW6       29.95R
MENOMONIE      CLOUDY    50  42  74 W7        29.96R
NEW RICHMOND   CLOUDY    48  39  70 W8        29.96R
OSCEOLA        CLOUDY    48  41  76 W6        29.99R
$$

WIZ003>005-009-010-017-018-221500-
NORTH CENTRAL WISCONSIN

CITY           SKY/WX    TMP DP  RH WIND       PRES   REMARKS
MANITOWISH WTR LGT RAIN  47  47 100 SW5       29.89S
ARBOR VITAE    CLOUDY    49  47  93 W6        29.91R
WOODRUFF       CLOUDY    49  47  93 W6        29.91R
RHINELANDER    CLOUDY    50  49  96 W8        29.93R
EAGLE RIVER    NOT AVBL
LAND O LAKES   CLOUDY    49  46  89 W3        29.91R
PHILLIPS       LGT RAIN  47  46  98 SW5       29.90S
TOMAHAWK       RAIN      48  45  90 W3        29.93R
MEDFORD        LGT RAIN  47  45  91 W7        29.94R
MERRILL        LGT RAIN  50  48  93 W8        29.93S
$$

WIZ029-030-035-036-043>047-221500-
CENTRAL WISCONSIN

CITY           SKY/WX    TMP DP  RH WIND       PRES   REMARKS
WAUSAU         LGT RAIN  50  47  89 W9        29.91R
MOSINEE        LGT RAIN  48  48 100 W9        29.94R
MARSHFIELD     CLOUDY    50  45  83 W9        29.93R
STEVENS POINT  CLOUDY    49  48  97 W5        29.94R
WAUPACA        LGT RAIN  55  52  89 NW9       29.92S
WAUTOMA        LGT RAIN N/A N/A N/A NW7       29.94R
WISC RAPIDS    CLOUDY    51  50  96 W6        29.95R
CAMP DOUGLAS   CLOUDY    52  50  93 NW7       29.95R
$$

WIZ011>013-019>022-031-037>040-048>050-221500-
NORTHEAST WISCONSIN

CITY           SKY/WX    TMP DP  RH WIND       PRES   REMARKS
ANTIGO         DRIZZLE   49  47  92 NW8       29.91S
SHAWANO        DRIZZLE   57  53  88 W8        29.90R
OCONTO         CLOUDY    62  56  83 S5        29.87R
STURGEON BAY   LGT RAIN  60  55  83 S17G24    29.90R
GREEN BAY      LGT RAIN  62  62 100 S9        29.87S
MANITOWOC      CLOUDY    61  54  77 S12       29.91R
APPLETON       CLOUDY    63  59  88 W7        29.87R
CLINTONVILLE   RAIN      55  52  88 W9        29.91R
OSHKOSH        LGT RAIN  57  55  93 W15       29.90R
$$

WIZ032>034-041-042-053>061-221500-
SOUTHWEST WISCONSIN

CITY           SKY/WX    TMP DP  RH WIND       PRES   REMARKS
LA CROSSE      CLOUDY    53  47  79 W5        29.97R
SPARTA         DRIZZLE   49  47  93 W5        29.97R
VIROQUA        CLOUDY    49  48  97 NW7       29.96R
BOSCOBEL       CLOUDY    53  49  86 CALM      29.98R
PRAIRIE DU CHI CLOUDY    52  46  80 CALM      29.98R
PLATTEVILLE    CLOUDY    52  52  99 NW8       29.96R
$$

WIZ056-057-062-063-064-067-068-221500-
SOUTH CENTRAL WISCONSIN

CITY           SKY/WX    TMP DP  RH WIND       PRES   REMARKS
REEDSBURG      LGT RAIN  52  52 100 NW3       29.95R
BARABOO/DELLS  DRIZZLE   51  49  92 NW6       29.94S
LONE ROCK      LGT RAIN  53  51  93 W6        29.95R
MINERAL POINT  LGT RAIN  52  52 100 NW10      29.94S
MADISON        LGT RAIN  55  53  93 NW13G18   29.92R FOG
MIDDLETON      CLOUDY    55  55 100 NW13      29.93S
WATERTOWN      LGT RAIN  61  61 100 S6        29.90S
MONROE         CLOUDY    54  54 100 N8        29.91S
JANESVILLE     CLOUDY    63  63 100 S9        29.90R
$$

WIZ051-052-058>065-066-070>072-221500-
SOUTHEAST WISCONSIN

CITY           SKY/WX    TMP DP  RH WIND       PRES   REMARKS
MILWAUKEE      CLOUDY    63  58  83 SE6       29.92F
WAUKESHA       CLOUDY    63  55  77 S7        29.92F
MILWAUKEE/TIMM PTSUNNY   66  55  68 S9        29.92S
RACINE         PTSUNNY   63  57  81 S12       29.94F
BURLINGTON     CLOUDY    66  60  81 S7        29.91F
KENOSHA        CLOUDY    67  58  72 S12       29.93S
FOND DU LAC    LGT RAIN  63  59  87 S8        29.89S
SHEBOYGAN      PTSUNNY   61  57  87 S8        29.91R
WEST BEND      CLOUDY    63  59  88 S7        29.91S
JUNEAU         LGT RAIN  61  60  96 S7        29.91F
$$

LSZ147-162-221500-
LAKE SUPERIOR

STATION/POSITION TIME  TEMP    WIND        PRES    WAVE
                       AIR SEA DIR/SP/G            HT/PER
                 (UTC) (F)     (DEG/KT/KT) (MB)    (FT/S)
W MID LAKE BUOY  1350   53 52              1009.7R   5/ 5
DEVILS ISLAND    1400   52     230/ 20/ 24 1010.9R
PORT WING        1240          210/  8/ 23 1010.8
SAXON HARBOR     1340   53     200/  7/ 12 1011.5R
$$

LMZ867-665-643>646-221500-
LAKE MICHIGAN

STATION/POSITION TIME  TEMP    WIND        PRES    WAVE
                       AIR SEA DIR/SP/G            HT/PER
                 (UTC) (F)     (DEG/KT/KT) (MB)    (FT/S)
S GREEN BAY BUOY 1400   61 58  180/ 16/ 19 1011.5
N MID LAKE BUOY  1350   62 58  180/ 19/ 21 1012.8R   6/ 7
NORTHPORT PIER   1340   60     160/  9/ 19 1012.2R
KEWAUNEE LAKESHO 1354   52     170/ 12/ 14 1012.0R
SHEBOYGAN LAKESH 1400   55     180/ 18/ 19 1012.5F
PORT WASHINGTON  1340   56     190/  6/  9 1014.2R
ATWATER BUOY     1309   56 52  170/ 12/ 14 1013.5R
MILWAUKEE LAKESH 1400   56     140/ 11/ 12   N/A
S MID LAKE BUOY  1350   63 61  150/ 21/ 23 1014.3R   4/ 5
KENOSHA   LAKESH 1400   56     160/ 11/ 12 1013.9
$$

TC  - TEMPERATURE IN CELSIUS
VSB - VISIBILITY IN STATUTE MILES
WCI - WIND CHILL INDEX
HX  - HEAT INDEX




USA.gov is the U.S. government's official web portal to all federal, state and local government web resources and services.